Location: Phoenix
(33.4480°N, 112.0730°W)
Time: 07:25:39
(UTC-07:00)

ISS - All Passes

Search period start: 23 November 2014 00:00
Search period end: 03 December 2014 00:00
Orbit: 408 x 417 km, 51.6° (Epoch: 23 November)

Date Brightness Start Highest point End Pass type
(mag) Time Alt. Az. Time Alt. Az. Time Alt. Az.
23 Nov - 00:00:00 16° ENE 23:59:45 18° ENE 00:00:46 10° ENE night (unlit)
23 Nov - 01:32:04 10° W 01:34:27 18° NNW 01:36:50 10° NNE night (unlit)
23 Nov - 06:28:02 10° NNE 06:28:48 11° NNE 06:29:34 10° NE visible
23 Nov - 08:02:36 10° NW 08:05:55 82° NE 08:09:12 10° SE daylight
23 Nov - 23:05:47 10° S 23:08:08 18° SE 23:10:29 10° E night (unlit)
24 Nov - 00:41:38 10° WSW 00:44:36 31° NW 00:47:34 10° NNE night (unlit)
24 Nov - 07:13:01 10° NNW 07:16:09 39° NE 07:19:17 10° ESE daylight
24 Nov - 08:50:41 10° W 08:52:31 14° SW 08:54:21 10° SSW daylight
24 Nov - 23:51:32 10° WSW 23:54:46 60° NW 23:58:02 10° NE night (unlit)
25 Nov - 06:23:36 10° NNW 06:26:16 22° NE 06:28:56 10° E visible
25 Nov - 08:00:01 10° WNW 08:02:53 28° SW 08:05:45 10° S daylight
25 Nov - 23:01:44 10° SW 23:04:59 63° SE 23:08:14 10° NE night (unlit)
26 Nov - 00:40:09 10° WNW 00:41:54 14° NNW 00:43:39 10° N night (unlit)
26 Nov - 05:34:24 10° N 05:36:15 14° NNE 05:38:06 10° ENE visible
26 Nov - 07:09:54 10° NW 07:13:09 59° SW 07:16:24 10° SE daylight
26 Nov - 22:12:19 10° SSW 22:15:12 29° SE 22:18:06 10° ENE night (unlit)
26 Nov - 23:49:13 10° W 23:51:50 22° NW 23:54:27 10° NNE night (unlit)
27 Nov - 06:20:01 10° NW 06:23:17 63° NE 06:26:33 10° SE visible
27 Nov - 21:23:32 10° SSE 21:25:26 15° SE 21:27:20 10° E night (unlit)
27 Nov - 22:58:43 10° WSW 23:01:48 38° NW 23:04:54 10° NNE night (unlit)
28 Nov - 05:30:18 10° NNW 05:33:18 32° NE 05:36:18 10° ESE visible
28 Nov - 07:07:26 10° W 07:09:44 18° SW 07:12:02 10° S daylight
28 Nov - 22:08:31 10° SW 22:11:48 79° NW 22:15:05 10° NE night (unlit)
28 Nov - 23:48:22 10° NW 23:48:54 10° NNW 23:49:26 10° NNW night (unlit)
29 Nov - 04:40:45 10° NNW 04:43:11 19° NNE 04:45:37 10° E visible
29 Nov - 06:16:50 10° WNW 06:19:53 36° SW 06:22:56 10° SSE visible
29 Nov - 21:18:40 10° SSW 21:21:49 47° SE 21:25:00 10° ENE night (unlit)
29 Nov - 22:56:30 10° WNW 22:58:37 16° NNW 23:00:45 10° N night (unlit)
30 Nov - 03:51:34 10° N 03:52:56 12° NNE 03:54:17 10° NE night (unlit)
30 Nov - 05:26:38 10° NW 05:29:55 79° SW 05:33:12 10° SE visible
30 Nov - 20:29:14 10° S 20:31:52 22° SE 20:34:30 10° ENE night (unlit)
30 Nov - 22:05:33 10° W 22:08:23 26° NW 22:11:13 10° NNE night (unlit)
01 Dec - 04:36:37 10° NW 04:39:50 48° NE 04:43:01 10° ESE visible
01 Dec - 06:14:57 10° WSW 06:16:05 11° SW 06:17:14 10° SSW visible
01 Dec - 19:40:51 10° SE 19:41:55 11° SE 19:42:59 10° ESE night (unlit)
01 Dec - 21:14:59 10° WSW 21:18:11 49° NW 21:21:23 10° NE night (unlit)
02 Dec - 03:46:47 10° NNW 03:49:36 26° NE 03:52:25 10° E night (unlit)
02 Dec - 05:23:28 10° WNW 05:26:07 23° SW 05:28:47 10° S visible
02 Dec - 20:24:43 10° SW 20:28:00 78° SE 20:31:17 10° NE night (unlit)
02 Dec - 22:03:34 10° NW 22:04:58 12° NNW 22:06:22 10° N night (unlit)
